Regional Weather Roundup
Issued by NWS

Home | Current Version | Previous Version | Graphics & Text | Print | Product List | Glossary On
Versions: 1 2 3 4 5 6 7 8 9 10 11 12 13 14 15 16 17 18 19 20 21 22 23 24 25 26 27 28 29 30 31 32 33 34 35 36 37 38 39 40 41 42 43 44 45 46 47 48 49 50
928
ASUS45 KBOI 281210
RWRID

IDAHO REGIONAL WEATHER ROUNDUP
NATIONAL WEATHER SERVICE BOISE ID
600 AM MDT SUN AUG 28 2016

NOTE: "FAIR" INDICATES FEW OR NO CLOUDS BELOW 12000 FEET
WITH NO SIGNIFICANT WEATHER AND/OR OBSTRUCTIONS TO VISIBILITY

IDZ012-014-281300-
SOUTHWEST IDAHO


CITY           SKY/WX    TMP DP  RH WIND       PRES   REMARKS
BOISE          CLEAR     60  36  40 S3        30.01R
CALDWELL       CLEAR     60  45  57 W6        30.01R
MOUNTAIN HOME  CLEAR     60  35  38 NW9       30.01R
$$

IDZ016-017-281300-
SOUTHCENTRAL IDAHO


CITY           SKY/WX    TMP DP  RH WIND       PRES   REMARKS
BURLEY         CLEAR     49  43  80 SE3       30.05R
JEROME         CLEAR     51  41  68 N5        30.05R
TWIN FALLS     CLEAR     62  30  29 S8        30.04R
$$

IDZ019>023-281300-
SOUTHEAST IDAHO


CITY           SKY/WX    TMP DP  RH WIND       PRES   REMARKS
IDAHO FALLS    CLEAR     54  35  48 SE5       30.10R
POCATELLO      CLEAR     49  34  56 N6        30.08R
REXBURG        CLEAR     46  35  65 NE5       30.11R
$$

IDZ006-010-011-018-031-032-281300-
CENTRAL IDAHO MOUNTAINS


CITY           SKY/WX    TMP DP  RH WIND       PRES   REMARKS
MCCALL         CLEAR     46  35  65 W3        30.10R
HAILEY         CLEAR     50  32  50 NW12      30.16R
STANLEY          N/A     34  24  67 CALM      30.22R
SALMON         CLEAR     50  36  57 CALM      30.04R
CHALLIS        MOCLDY    49  28  44 CALM      30.11R
$$

IDZ002-004-006-007-026-281300-
NORTHERN IDAHO


CITY           SKY/WX    TMP DP  RH WIND       PRES   REMARKS
LEWISTON       MOCLDY    65  46  50 SE3       29.96R
LOWELL           N/A     58  51  78 CALM      29.99R
COEUR D`ALENE  CLEAR     54  39  58 MISG      29.95R
MULLAN PASS    CLEAR     48  35  60 VRB7      30.07R
$$




USA.gov is the U.S. government's official web portal to all federal, state and local government web resources and services.